Miscellaneous Local Product
Issued by NWS Hastings, NE

Home | Current Version | Previous Version | Text Only | Print | Product List | Glossary On
Versions: 1 2 3 4 5 6 7 8 9 10 11 12 13 14 15 16 17 18 19 20 21 22 23 24 25 26 27 28 29 30 31 32 33 34 35 36 37 38 39 40 41 42 43 44 45 46 47 48 49 50
282
AXUS43 KGID 270802
MISGRI

GID CWA HOURLY WEATHER ROUNDUP
NATIONAL WEATHER SERVICE HASTINGS NE
300 AM CDT THU JUL 27 2017

NOTE: "FAIR" INDICATES FEW OR NO CLOUDS BELOW 12,000 FEET WITH NO
SIGNIFICANT WEATHER AND/OR OBSTRUCTIONS TO VISIBILITY.

...SOUTH CENTRAL NEBRASKA...

CITY           SKY/WX    TMP DP  RH WIND       PRES   REMARKS
GRAND ISLAND   CLOUDY    70  70 100 N10       30.08R
HASTINGS       CLOUDY    72  69  90 N9        30.07F FOG
KEARNEY        CLOUDY    70  70 100 N10       30.09S FOG
ORD            PTCLDY    66  60  81 N6        30.11S
YORK           MOCLDY    72  72 100 N8        30.06R FOG
AURORA         CLOUDY    70  70 100 NE10      30.07R
LEXINGTON      CLOUDY    71  68  91 N6        30.11F
HOLDREGE       PTCLDY    69  67  95 N6        30.09S FOG
HEBRON         CLOUDY    73  71  94 NE6       30.02S FOG

...NEBRASKA PANHANDLE...

CITY           SKY/WX    TMP DP  RH WIND       PRES   REMARKS
CHADRON        CLOUDY    73  62  68 SE12      30.18R
ALLIANCE       CLOUDY    68  64  87 E7        30.21S
SCOTTSBLUFF    CLOUDY    67  62  84 CALM      30.20S
SIDNEY         PTCLDY    63  61  93 S5        30.23F

...WESTERN AND NORTH CENTRAL NEBRASKA...

CITY           SKY/WX    TMP DP  RH WIND       PRES   REMARKS
VALENTINE      PTCLDY    64  56  75 CALM      30.18S
AINSWORTH      CLEAR     64  60  88 CALM      30.17F
ONEILL         PTCLDY    63  62  98 CALM      30.14S
BROKEN BOW     CLEAR     67  62  84 NE7       30.14S
IMPERIAL       CLOUDY    67  63  87 N5        30.16F
NORTH PLATTE   CLOUDY    70  67  90 NE8       30.15S
MCCOOK         CLOUDY    70  68  93 N8        30.11S

...EASTERN NEBRASKA...

CITY           SKY/WX    TMP DP  RH WIND       PRES   REMARKS
NORFOLK        CLEAR     68  60  75 NE7       30.09S
SO SIOUX CITY  CLEAR     66  64  93 N8        30.06F
TEKAMAH        CLOUDY    70  66  87 N8        30.04S
COLUMBUS       PTCLDY    69  64  84 NE10      30.06F
ALBION         CLEAR     68  63  84 NE7       30.10F
OMAHA EPPLEY   PTCLDY    71  69  93 N8        30.01F FOG
OFFUTT AFB     CLEAR     72  71  97 N6        30.00S
MILLARD        MOCLDY    74  74  97 N5        30.01S FOG
LINCOLN        CLEAR     70  69  97 N6        30.01F FOG
NEBRASKA CITY  CLOUDY    73  73 100 NE8       30.00S FOG
BEATRICE       MOCLDY    73  72  96 NE5       30.00S FOG
FALLS CITY     CLOUDY    74  74 100 N8        29.95F

...NORTHERN KANSAS...

CITY           SKY/WX    TMP DP  RH WIND       PRES   REMARKS
GOODLAND       CLOUDY    70  67  90 N7        30.17R
HILL CITY      CLOUDY    73  71  93 N10       30.07S
NORTON         PTSUNNY   70  64  83 N6        30.08F
PHILLIPSBURG   CLOUDY    73  73 100 N7        30.06S
SMITH CENTER   CLOUDY    72  70  94 N8        30.05S
HAYS           CLOUDY    74  70  87 NE12      30.03R
RUSSELL        CLOUDY    74  71  91 N12       30.00S
CONCORDIA      CLOUDY    74  73  97 NE8       29.99F
SALINA         CLOUDY    77  73  87 N7        29.96S
TOPEKA         LGT RAIN  75  75 100 N3        29.93F



USA.gov is the U.S. government's official web portal to all federal, state and local government web resources and services.